TimeCDT,TemperatureF,Dew PointF,Humidity,Sea Level PressureIn,VisibilityMPH,Wind Direction,Wind SpeedMPH,Gust SpeedMPH,PrecipitationIn,Events,Conditions,WindDirDegrees,DateUTC
12:53 AM,59.0,52.0,78,30.06,10.0,Calm,Calm,-,N/A,,Clear,0,2013-07-03 05:53:00
1:53 AM,57.0,51.1,81,30.07,10.0,Calm,Calm,-,N/A,,Clear,0,2013-07-03 06:53:00
2:53 AM,55.0,51.1,86,30.06,10.0,Calm,Calm,-,N/A,,Clear,0,2013-07-03 07:53:00
3:53 AM,55.0,50.0,83,30.06,10.0,Calm,Calm,-,N/A,,Clear,0,2013-07-03 08:53:00
4:53 AM,53.1,50.0,89,30.07,10.0,South,4.6,-,N/A,,Clear,180,2013-07-03 09:53:00
5:53 AM,53.1,50.0,89,30.08,10.0,Calm,Calm,-,N/A,,Clear,0,2013-07-03 10:53:00
6:53 AM,55.9,53.1,90,30.08,10.0,Calm,Calm,-,N/A,,Clear,0,2013-07-03 11:53:00
7:53 AM,60.1,55.0,83,30.09,8.0,Calm,Calm,-,N/A,,Clear,0,2013-07-03 12:53:00
8:53 AM,69.1,55.0,61,30.11,10.0,South,3.5,-,N/A,,Clear,190,2013-07-03 13:53:00
9:53 AM,73.0,54.0,51,30.11,10.0,South,4.6,-,N/A,,Clear,170,2013-07-03 14:53:00
10:53 AM,78.1,50.0,37,30.10,10.0,SE,5.8,-,N/A,,Clear,140,2013-07-03 15:53:00
11:53 AM,80.1,44.1,28,30.09,10.0,NNE,4.6,-,N/A,,Clear,20,2013-07-03 16:53:00
12:53 PM,81.0,46.0,29,30.08,10.0,SSE,9.2,-,N/A,,Clear,150,2013-07-03 17:53:00
1:53 PM,82.0,44.1,26,30.06,10.0,SSE,8.1,-,N/A,,Clear,150,2013-07-03 18:53:00
2:35 PM,80.6,41.0,24,30.08,9.0,Variable,3.5,-,N/A,,Partly Cloudy,0,2013-07-03 19:35:00
2:53 PM,82.9,41.0,23,30.04,10.0,SE,8.1,-,N/A,,Clear,130,2013-07-03 19:53:00
3:53 PM,84.0,44.1,25,30.03,10.0,Variable,3.5,-,N/A,,Mostly Cloudy,0,2013-07-03 20:53:00
4:53 PM,82.9,44.1,25,30.01,10.0,Calm,Calm,-,N/A,,Partly Cloudy,0,2013-07-03 21:53:00
5:53 PM,82.0,43.0,25,30.00,10.0,Variable,3.5,-,N/A,,Partly Cloudy,0,2013-07-03 22:53:00
6:53 PM,81.0,48.0,31,30.00,10.0,SSW,6.9,-,N/A,,Clear,200,2013-07-03 23:53:00
7:53 PM,77.0,51.1,40,30.01,10.0,SSW,4.6,-,N/A,,Clear,200,2013-07-04 00:53:00
8:53 PM,73.0,52.0,48,30.00,10.0,SW,3.5,-,N/A,,Clear,230,2013-07-04 01:53:00
9:53 PM,69.1,53.1,57,30.01,10.0,Calm,Calm,-,N/A,,Clear,0,2013-07-04 02:53:00
10:53 PM,64.0,53.1,67,30.03,10.0,Calm,Calm,-,N/A,,Clear,0,2013-07-04 03:53:00
11:53 PM,62.1,53.1,72,30.03,10.0,Calm,Calm,-,N/A,,Clear,0,2013-07-04 04:53:00